Regional Weather Roundup
Issued by NWS

Home | Current Version | Previous Version | Graphics & Text | Print | Product List | Glossary On
Versions: 1 2 3 4 5 6 7 8 9 10 11 12 13 14 15 16 17 18 19 20 21 22 23 24 25 26 27 28 29 30 31 32 33 34 35 36 37 38 39 40 41 42 43 44 45 46 47 48 49 50
000
ASUS43 KIND 230209
RWRIN

WEATHER ROUNDUP FOR INDIANA
NATIONAL WEATHER SERVICE INDIANAPOLIS IN
1000 PM EDT FRI AUG 22 2014

NOTE: "FAIR" INDICATES FEW OR NO CLOUDS BELOW 12,000 FEET WITH NO
SIGNIFICANT WEATHER AND/OR OBSTRUCTIONS TO VISIBILITY.

* - STATION DOES NOT REPORT WEATHER SUCH AS PRECIPITATION OR FOG.

+ - STATION NOT QUALITY CONTROLLED BY THE NATIONAL WEATHER SERVICE.
    USE DATA WITH CAUTION...ESPECIALLY DEWPOINT AND RELATIVE
    HUMIDITY OBSERVATIONS.

INZ001>003-010>013-019-020-230300-
NORTHWEST INDIANA

CITY           SKY/WX    TMP DP  RH WIND       PRES   REMARKS
GARY /AIRPORT/ MOCLDY    79  73  83 CALM      29.97R
KNOX *+        CLEAR     75  71  87 CALM      29.97S
LA PORTE +     PTCLDY    75  73  93 CALM      29.99R
MICHIGAN CITY+ MOCLDY    73  73 100 CALM      29.98R
MONTICELLO +   CLEAR     75  74  94 SW3       29.98R
RENSSELAER +   CLEAR     73  73 100 W3        29.99R
VALPARAISO     MOCLDY    75  71  87 W6        29.98S

$$

LMZ046-743>745-230300-
SOUTHERN LAKE MICHIGAN

STATION/POSITION TIME  TEMP WIND        PRES
                       AIR  DIR/SP/G
                 (UTC) (F)  (DEG/KT/KT) (MB)
MICHIGAN CITY    0200   78  190/  1/  2   N/A

$$

INZ004-005-014>016-021>024-230300-
NORTH CENTRAL INDIANA

CITY           SKY/WX    TMP DP  RH WIND       PRES   REMARKS
GOSHEN         LGT RAIN  79  75  87 CALM      29.98R
LOGANSPORT +   CLOUDY    73  72  94 SW5       30.01R
PERU/GRISSOM   CLOUDY    77  77 100 S1        30.00R
ROCHESTER +    CLOUDY    81  73  78 CALM      30.00R
SOUTH BEND     CLOUDY    80  74  81 CALM      29.98R
WARSAW +       MOCLDY    77  73  88 CALM      29.99R

$$

INZ006>009-017-018-025>027-230300-
NORTHEAST INDIANA

CITY           SKY/WX    TMP DP  RH WIND       PRES   REMARKS
ANGOLA *+      PTCLDY    75  72  88 CALM      30.00R
AUBURN +       CLEAR     75  72  88 CALM      30.00R
FORT WAYNE     MOCLDY    74  72  93 W3        29.99R
HUNTINGTON +   CLEAR     73  73  97 CALM      29.99R

$$

INZ028-029-035-036-043>045-051>053-230300-
WEST CENTRAL INDIANA

CITY           SKY/WX    TMP DP  RH WIND       PRES   REMARKS
GREENCASTLE +  PTCLDY    73  73 100 CALM      30.01R FOG
LAFAYETTE      CLEAR     74  73  97 CALM      29.99R
TERRE HAUTE    PTCLDY    78  75  90 CALM      29.98R

$$

INZ030>032-037>040-046>048-054>057-064-065-230300-
CENTRAL INDIANA

CITY           SKY/WX    TMP DP  RH WIND       PRES   REMARKS
CP ATTERBURY + PTCLDY    73  72  94 CALM      30.01R
COLUMBUS       PTCLDY    75  73  94 CALM      30.00R
FRANKFORT +    CLEAR    N/A N/A N/A CALM      30.02R
INDIANAPOLIS   MOCLDY    79  70  74 N3        30.00R
-EAGLE CREEK   PTCLDY    76  72  87 CALM      30.00R
KOKOMO *+      MOCLDY    73  70  88 CALM      30.00R
MARION +       PTCLDY    72  71  96 W3        30.01R
MT COMFORT *+  PTCLDY    73 N/A N/A CALM      30.01S
SHELBYVILLE    PTCLDY    76  71  85 CALM      30.00R
ZIONSVILLE +   MOCLDY    75  71  86 CALM      30.02R

$$

INZ033-034-041-042-049-050-058-059-230300-
EAST CENTRAL INDIANA

CITY           SKY/WX    TMP DP  RH WIND       PRES   REMARKS
MUNCIE         PTCLDY    76  71  85 W3        30.00R

$$

INZ060-061-067>069-081>083-085>088-230300-
SOUTHWEST INDIANA

CITY           SKY/WX    TMP DP  RH WIND       PRES   REMARKS
EVANSVILLE     PTCLDY    82  77  84 CALM      29.98R
WASHINGTON +   CLOUDY    78  78 100 CALM      29.98R

$$

INZ062-063-066-070>080-084-089>092-230300-
SOUTH CENTRAL AND SOUTHEAST INDIANA

CITY           SKY/WX    TMP DP  RH WIND       PRES   REMARKS
BLOOMINGTON    MOCLDY    77  74  90 CALM      30.00R

$$




USA.gov is the U.S. government's official web portal to all federal, state and local government web resources and services.